Previsão horária em Kaarina

Hoje, 18 Junho, Sexta-feira

Tempo Temperatura Precipitação Vento Pressão Humidade
00:00 +12°C° 0 mm 4 m/s 762 mmHg 81%
01:00 +12°C° 0 mm 4 m/s 762 mmHg 82%
02:00 +12°C° 0 mm 4 m/s 762 mmHg 80%
03:00 +13°C° 0 mm 4 m/s 761 mmHg 78%
04:00 +14°C° 0 mm 4 m/s 761 mmHg 77%
05:00 +15°C° 0 mm 4 m/s 761 mmHg 70%
06:00 +18°C° 0 mm 4 m/s 761 mmHg 64%
07:00 +20°C° 0 mm 5 m/s 761 mmHg 56%
08:00 +21°C° 0 mm 5 m/s 760 mmHg 55%
09:00 +22°C° 0 mm 6 m/s 760 mmHg 53%
10:00 +23°C° 0 mm 6 m/s 760 mmHg 51%
11:00 +23°C° 0 mm 6 m/s 760 mmHg 52%
12:00 +23°C° 0 mm 7 m/s 760 mmHg 54%
13:00 +23°C° 0 mm 7 m/s 759 mmHg 55%
14:00 +23°C° 0 mm 7 m/s 759 mmHg 55%
15:00 +23°C° 0 mm 7 m/s 759 mmHg 56%
16:00 +22°C° 0 mm 7 m/s 759 mmHg 57%
17:00 +21°C° 0 mm 7 m/s 759 mmHg 60%
18:00 +20°C° 0 mm 7 m/s 759 mmHg 63%
19:00 +19°C° 0 mm 6 m/s 759 mmHg 66%
20:00 +17°C° 0 mm 5 m/s 759 mmHg 70%
21:00 +17°C° 0 mm 4 m/s 759 mmHg 75%
22:00 +16°C° 0 mm 3 m/s 760 mmHg 80%
23:00 +16°C° 0 mm 3 m/s 760 mmHg 81%

Amanhã, 19 Junho, Sábado

Tempo Temperatura Precipitação Vento Pressão Humidade
00:00 +16°C° 0 mm 3 m/s 760 mmHg 83%
01:00 +15°C° 0 mm 4 m/s 760 mmHg 85%
02:00 +16°C° 0 mm 3 m/s 760 mmHg 85%
03:00 +16°C° 0 mm 3 m/s 760 mmHg 85%
04:00 +16°C° 0 mm 3 m/s 760 mmHg 85%
05:00 +18°C° 0 mm 3 m/s 760 mmHg 79%
06:00 +19°C° 0 mm 3 m/s 760 mmHg 74%
07:00 +21°C° 0 mm 3 m/s 760 mmHg 68%
08:00 +22°C° 0 mm 4 m/s 760 mmHg 65%
09:00 +23°C° 0 mm 4 m/s 760 mmHg 62%
10:00 +25°C° 0 mm 4 m/s 760 mmHg 59%
11:00 +25°C° 0 mm 4 m/s 759 mmHg 59%
12:00 +25°C° 0 mm 5 m/s 759 mmHg 59%
13:00 +25°C° 0 mm 5 m/s 759 mmHg 60%
14:00 +25°C° 0 mm 5 m/s 759 mmHg 61%
15:00 +23°C° 0 mm 5 m/s 759 mmHg 62%
16:00 +23°C° 0 mm 5 m/s 759 mmHg 64%
17:00 +22°C° 0 mm 4 m/s 759 mmHg 68%
18:00 +21°C° 0 mm 4 m/s 759 mmHg 72%
19:00 +20°C° 0 mm 4 m/s 758 mmHg 77%
20:00 +20°C° 0 mm 4 m/s 758 mmHg 79%
21:00 +19°C° 0 mm 4 m/s 758 mmHg 81%
22:00 +17°C° 0 mm 5 m/s 758 mmHg 83%
23:00 +17°C° 0 mm 5 m/s 758 mmHg 83%

Depois de amanhã, 20 Junho, Domingo

Tempo Temperatura Precipitação Vento Pressão Humidade
00:00 +17°C° 0 mm 5 m/s 758 mmHg 83%
01:00 +17°C° 0 mm 6 m/s 757 mmHg 82%
02:00 +17°C° 0 mm 5 m/s 757 mmHg 82%
03:00 +19°C° 0 mm 5 m/s 757 mmHg 82%
04:00 +19°C° 0 mm 5 m/s 757 mmHg 81%
05:00 +20°C° 0 mm 5 m/s 757 mmHg 78%
06:00 +20°C° 0 mm 5 m/s 757 mmHg 74%
07:00 +21°C° 0 mm 5 m/s 757 mmHg 71%
08:00 +22°C° 0 mm 5 m/s 757 mmHg 70%
09:00 +22°C° 0 mm 4 m/s 757 mmHg 70%
10:00 +22°C° 0 mm 4 m/s 757 mmHg 70%
11:00 +23°C° 0 mm 4 m/s 757 mmHg 68%
12:00 +23°C° 0 mm 4 m/s 757 mmHg 66%
13:00 +25°C° 0 mm 3 m/s 758 mmHg 64%
14:00 +25°C° 0 mm 3 m/s 758 mmHg 64%
15:00 +25°C° 0 mm 3 m/s 758 mmHg 64%
16:00 +24°C° 0 mm 3 m/s 758 mmHg 65%
17:00 +22°C° 0 mm 3 m/s 758 mmHg 69%
18:00 +21°C° 0 mm 2 m/s 758 mmHg 73%
19:00 +21°C° 0 mm 2 m/s 758 mmHg 76%
20:00 +19°C° 0 mm 2 m/s 758 mmHg 83%
21:00 +19°C° 0 mm 1 m/s 758 mmHg 89%
22:00 +18°C° 0 mm 1 m/s 758 mmHg 95%
23:00 +18°C° 0 mm 1 m/s 758 mmHg 96%

21 Junho, Segunda-feira

Tempo Temperatura Precipitação Vento Pressão Humidade
00:00 +17°C° 0 mm 2 m/s 758 mmHg 96%
01:00 +16°C° 0 mm 2 m/s 758 mmHg 97%
02:00 +17°C° 0 mm 2 m/s 758 mmHg 95%
03:00 +18°C° 0 mm 2 m/s 758 mmHg 92%
04:00 +18°C° 0 mm 2 m/s 758 mmHg 90%
05:00 +20°C° 0 mm 3 m/s 758 mmHg 83%
06:00 +22°C° 0 mm 3 m/s 758 mmHg 75%
07:00 +25°C° 0 mm 4 m/s 758 mmHg 68%
08:00 +26°C° 0 mm 4 m/s 758 mmHg 65%
09:00 +27°C° 0 mm 4 m/s 758 mmHg 62%
10:00 +28°C° 0 mm 5 m/s 758 mmHg 59%
11:00 +28°C° 0 mm 5 m/s 758 mmHg 58%
12:00 +28°C° 0 mm 5 m/s 758 mmHg 57%
13:00 +28°C° 0 mm 5 m/s 757 mmHg 56%
14:00 +28°C° 0 mm 4 m/s 757 mmHg 57%
15:00 +28°C° 0 mm 4 m/s 757 mmHg 57%
16:00 +28°C° 0 mm 4 m/s 757 mmHg 58%
17:00 +27°C° 0 mm 3 m/s 757 mmHg 62%
18:00 +26°C° 0 mm 3 m/s 757 mmHg 65%
19:00 +25°C° 0 mm 3 m/s 756 mmHg 69%
20:00 +24°C° 0 mm 3 m/s 756 mmHg 73%
21:00 +22°C° 0 mm 3 m/s 756 mmHg 78%
22:00 +21°C° 0 mm 3 m/s 756 mmHg 83%
23:00 +20°C° 0 mm 3 m/s 756 mmHg 83%

22 Junho, Terça-feira

Tempo Temperatura Precipitação Vento Pressão Humidade
00:00 +20°C° 0 mm 3 m/s 756 mmHg 82%
01:00 +20°C° 0 mm 3 m/s 755 mmHg 82%
02:00 +20°C° 0 mm 3 m/s 755 mmHg 80%
03:00 +21°C° 0 mm 3 m/s 755 mmHg 78%
04:00 +21°C° 0 mm 4 m/s 755 mmHg 76%
05:00 +22°C° 0 mm 4 m/s 755 mmHg 70%
06:00 +25°C° 0 mm 4 m/s 755 mmHg 64%
07:00 +26°C° 0 mm 5 m/s 754 mmHg 58%
08:00 +26°C° 0.3 mm 5 m/s 754 mmHg 62%
09:00 +26°C° 0.3 mm 5 m/s 754 mmHg 65%
10:00 +26°C° 0.3 mm 5 m/s 754 mmHg 68%
11:00 +26°C° 0.1 mm 5 m/s 755 mmHg 66%
12:00 +27°C° 0.1 mm 5 m/s 755 mmHg 63%
13:00 +27°C° 0.1 mm 6 m/s 755 mmHg 60%
14:00 +27°C° 0 mm 5 m/s 755 mmHg 60%
15:00 +27°C° 0 mm 5 m/s 755 mmHg 60%
16:00 +26°C° 0 mm 5 m/s 755 mmHg 60%
17:00 +25°C° 0 mm 4 m/s 755 mmHg 65%
18:00 +23°C° 0 mm 4 m/s 755 mmHg 70%
19:00 +22°C° 0 mm 4 m/s 755 mmHg 74%
20:00 +20°C° 0 mm 3 m/s 755 mmHg 81%
21:00 +19°C° 0 mm 3 m/s 756 mmHg 87%
22:00 +18°C° 0 mm 3 m/s 756 mmHg 93%
23:00 +17°C° 0 mm 2 m/s 756 mmHg 95%

23 Junho, Quarta-feira

Tempo Temperatura Precipitação Vento Pressão Humidade
00:00 +17°C° 0 mm 2 m/s 756 mmHg 97%
01:00 +16°C° 0 mm 2 m/s 756 mmHg 98%
02:00 +16°C° 0 mm 2 m/s 757 mmHg 97%
03:00 +17°C° 0 mm 2 m/s 757 mmHg 96%
04:00 +17°C° 0 mm 2 m/s 757 mmHg 94%
05:00 +19°C° 0 mm 2 m/s 757 mmHg 86%
06:00 +21°C° 0 mm 2 m/s 757 mmHg 77%
07:00 +23°C° 0 mm 2 m/s 758 mmHg 69%
08:00 +24°C° 0 mm 2 m/s 758 mmHg 65%
09:00 +25°C° 0 mm 3 m/s 758 mmHg 61%
10:00 +26°C° 0 mm 3 m/s 759 mmHg 57%
11:00 +26°C° 0 mm 3 m/s 759 mmHg 54%
12:00 +26°C° 0 mm 3 m/s 759 mmHg 52%
13:00 +27°C° 0 mm 3 m/s 759 mmHg 50%
14:00 +26°C° 0 mm 3 m/s 759 mmHg 50%
15:00 +26°C° 0 mm 3 m/s 759 mmHg 51%
16:00 +26°C° 0 mm 2 m/s 760 mmHg 51%
17:00 +25°C° 0 mm 3 m/s 760 mmHg 56%
18:00 +22°C° 0 mm 3 m/s 760 mmHg 60%
19:00 +21°C° 0 mm 3 m/s 760 mmHg 65%
20:00 +20°C° 0 mm 2 m/s 760 mmHg 69%
21:00 +18°C° 0 mm 2 m/s 761 mmHg 74%
22:00 +16°C° 0 mm 2 m/s 761 mmHg 79%
23:00 +16°C° 0 mm 2 m/s 761 mmHg 80%
Mostrar mais

Necessitamos do seu Consentimento

A Meteoprog e os seus Fornecedores de Serviços podem armazenar e aceder a dados pessoais como cookies, identificadores do dispositivo ou outras tecnologias semelhantes existentes no seu dispositivo e processar estes dados para personalizar conteúdos e anúncios, assim como funcionalidades nas redes sociais e análise de tráfego.

  • Armazenar e/ou aceder a informações no seu dispositivo

    Os cookies, identificadores do dispositivo ou outras informações podem ser armazenados ou acedidos no seu dispositivo, para os fins acima indicados.

  • Anúncios e conteúdos personalizados, medição de anúncios e conteúdos, dados sobre o público-alvo e desenvolvimento de produtos

    Os anúncios e os conteúdos podem ser personalizados com base num perfil. Podem ser adicionados dados adicionais para uma maior personalização dos anúncios e dos conteúdos. A eficácia dos anúncios e dos conteúdos pode ser medida. Podem ser obtidas informações sobre o público que visualizou os anúncios e os conteúdos. Estes dados podem ser usados para desenvolver ou melhorar sistemas, softwares ou a experiência do utilizador.

Ao clicar em "Eu concordo”, permitirá o uso de cookies, identificadores do dispositivo e web beacons mencionados ou outras tecnologias semelhantes. As configurações do navegador do seu dispositivo podem ser alteradas.

Para certos fins, podem ser invocados interesses legítimos ao invés de consentimento. Pode ler mais informação sobre este assunto na nossa Política de Privacidade e Cookies.